{"data":{"norad_id":66088,"epoch":"2026-05-25T03:32:28.130784Z","epoch_age_seconds":52365,"freshness":"FRESH","line1":"1 66088U 25236C   26145.14754781  .00018513  00000+0  63540-3 0  9999","line2":"2 66088  53.1600 108.5146 0001018 109.1825 250.9285 15.30212037 34592","mean_motion":15.30212037,"eccentricity":0.0001018,"inclination_deg":53.16,"raan_deg":108.5146,"arg_perigee_deg":109.1825,"mean_anomaly_deg":250.9285,"bstar":0.0006354,"rev_number":3459,"period_min":94.10460545214,"perigee_km":474.48146176064,"apogee_km":475.87679692457,"semimajor_km":6853.3161293426,"source":"CELESTRAK","updated_at":"2026-05-25T13:38:21.026897Z"}}